Simultaneous Nadir Overpasses (SNOs) Predictions

Prediction of SNOs between AQUA and METOP-A Satellite Orbit:

Table of predicted SNOs for the next 14.0 days since TLE Epoch: 12/29/2017
Index Date (AQUA) Time (AQUA) Lat,Lon (AQUA) SZA (AQUA ) Date (METOP-A) Time (METOP-A) Lat,Lon (METOP-A) SZA (METOP-A ) Distance(km) Time Diff (sec)
1 12/31/2017 10:59:07 74.06, 8.91 97.15 12/31/2017 10:57:59 74.03, 8.89 97.13 3.56 68
2 12/31/2017 11:48:34 -74.15, 176.36 82.77 12/31/2017 11:48:39 -74.13, 176.46 82.79 3.65 5
3 12/31/2017 12:38:04 74.26, -16.28 97.36 12/31/2017 12:39:16 74.26, -15.90 97.33 11.40 72
4 01/03/2018 06:33:22 74.04, 75.40 96.89 01/03/2018 06:32:17 74.03, 75.30 96.90 3.21 65
5 01/03/2018 07:22:49 -74.13,-117.15 83.03 01/03/2018 07:22:57 -74.13,-117.13 83.02 1.10 8
6 01/03/2018 08:12:21 74.35, 49.97 97.21 01/03/2018 08:13:32 74.35, 50.76 97.18 23.69 71
7 01/06/2018 02:07:39 74.08, 141.75 96.64 01/06/2018 02:06:35 74.08, 141.82 96.65 2.21 64
8 01/06/2018 02:57:05 -74.11, -50.68 83.34 01/06/2018 02:57:16 -74.13, -50.72 83.31 2.85 11
9 01/06/2018 03:46:39 74.43, 116.20 97.01 01/06/2018 03:47:49 74.45, 117.42 96.98 36.43 70
10 01/08/2018 21:41:55 74.07,-151.79 96.28 01/08/2018 21:40:54 74.08,-151.78 96.29 0.91 61
11 01/08/2018 22:31:22 -74.16, 15.66 83.64 01/08/2018 22:31:35 -74.13, 15.68 83.67 2.75 13
12 01/08/2018 23:20:57 74.53,-177.60 96.76 01/08/2018 23:22:06 74.55,-175.93 96.71 49.49 69
13 01/11/2018 17:16:10 74.07, -85.36 95.87 01/11/2018 17:15:12 74.07, -85.38 95.88 0.82 58
14 01/11/2018 18:05:37 -74.16, 82.10 84.05 01/11/2018 18:05:53 -74.13, 82.07 84.08 3.45 16




NCC Satellite Simultaneous Nadir Overpasses (SNOs) Prediction Service
